Location: Powder Track
(41.8531°N, 72.3584°W)
Time: 13:44:19
(UTC+00:00)

Tiros 1 despin weight - Pass Details

Date: 30 July 2021
Orbit: 594 x 641 km, 48.2° (Epoch: 16 September)

Event Time Altitude Azimuth Distance (km) Brightness Sun altitude
Rises 01:03:04 0° 295° (WNW) 2,934 ? -9.2°
Reaches altitude 10° 01:05:27 10° 290° (WNW) 2,018 ? -9.6°
Maximum altitude 01:09:56 48° 216° (SW) 821 ? -10.3°
Enters shadow 01:13:42 14° 145° (SE) 1,752 ? -10.8°
